Time,TemperatureF,DewpointF,PressureIn,WindDirection,WindDirectionDegrees,WindSpeedMPH,WindSpeedGustMPH,Humidity,HourlyPrecipIn,Conditions,Clouds,dailyrainin,SoftwareType,DateUTC
2013-01-28 00:01:00,33.0,23.0,29.81,SW,217,6.0,10.0,66,0.00,,,0.00,,2013-01-28 08:01:00,
2013-01-28 00:11:00,33.0,23.0,29.81,SW,217,6.0,10.0,66,0.00,,,0.00,,2013-01-28 08:11:00,
2013-01-28 00:21:00,33.0,23.0,29.81,SW,217,6.0,10.0,66,0.00,,,0.00,,2013-01-28 08:21:00,
2013-01-28 00:31:00,33.0,23.0,29.81,SW,217,6.0,10.0,66,0.00,,,0.00,,2013-01-28 08:31:00,
2013-01-28 01:02:00,33.0,23.0,29.78,SSW,202,6.0,8.0,67,0.00,,,0.00,,2013-01-28 09:02:00,
2013-01-28 01:11:00,33.0,23.0,29.78,SSW,202,6.0,8.0,67,0.00,,,0.00,,2013-01-28 09:11:00,
2013-01-28 01:21:00,33.0,23.0,29.78,SSW,202,6.0,8.0,67,0.00,,,0.00,,2013-01-28 09:21:00,
2013-01-28 01:32:00,33.0,23.0,29.78,WSW,241,5.0,8.0,66,0.00,,,0.00,,2013-01-28 09:32:00,
2013-01-28 01:42:00,33.0,23.0,29.78,WSW,241,5.0,8.0,66,0.00,,,0.00,,2013-01-28 09:42:00,
2013-01-28 01:52:00,33.0,23.0,29.81,WSW,248,5.0,8.0,67,0.00,,,0.00,,2013-01-28 09:52:00,
2013-01-28 02:01:00,33.0,24.0,29.81,WNW,294,4.0,8.0,68,0.00,,,0.00,,2013-01-28 10:01:00,
2013-01-28 02:11:00,33.0,24.0,29.81,WNW,294,4.0,8.0,68,0.00,,,0.00,,2013-01-28 10:11:00,
2013-01-28 02:21:00,33.0,24.0,29.81,WNW,294,4.0,8.0,68,0.00,,,0.00,,2013-01-28 10:21:00,
2013-01-28 02:31:00,33.0,23.0,29.81,SW,223,5.0,8.0,65,0.00,,,0.00,,2013-01-28 10:31:00,
2013-01-28 02:41:00,33.0,23.0,29.81,SW,223,5.0,8.0,65,0.00,,,0.00,,2013-01-28 10:41:00,
2013-01-28 02:52:00,33.0,23.0,29.81,SW,223,5.0,8.0,65,0.00,,,0.00,,2013-01-28 10:52:00,
2013-01-28 03:01:00,32.0,22.0,29.81,West,279,6.0,8.0,65,0.00,,,0.00,,2013-01-28 11:01:00,
2013-01-28 03:11:00,32.0,22.0,29.81,West,279,6.0,8.0,65,0.00,,,0.00,,2013-01-28 11:11:00,
2013-01-28 03:22:00,32.0,22.0,29.81,West,279,6.0,8.0,65,0.00,,,0.00,,2013-01-28 11:22:00,
2013-01-28 03:32:00,32.0,22.0,29.81,West,279,6.0,8.0,65,0.00,,,0.00,,2013-01-28 11:32:00,
2013-01-28 03:41:00,32.0,22.0,29.81,West,279,6.0,8.0,65,0.00,,,0.00,,2013-01-28 11:41:00,
2013-01-28 04:03:00,32.0,22.0,29.81,WNW,292,9.0,12.0,66,0.00,,,0.00,,2013-01-28 12:03:00,
2013-01-28 04:11:00,32.0,22.0,29.81,WNW,292,9.0,12.0,66,0.00,,,0.00,,2013-01-28 12:11:00,
2013-01-28 04:23:00,32.0,22.0,29.81,WNW,292,9.0,12.0,66,0.00,,,0.00,,2013-01-28 12:23:00,
2013-01-28 04:32:00,32.0,22.0,29.84,West,261,7.0,10.0,67,0.00,,,0.00,,2013-01-28 12:32:00,
2013-01-28 04:42:00,32.0,22.0,29.84,West,261,7.0,10.0,67,0.00,,,0.00,,2013-01-28 12:42:00,
2013-01-28 04:52:00,32.0,22.0,29.84,West,261,7.0,10.0,67,0.00,,,0.00,,2013-01-28 12:52:00,
2013-01-28 05:02:00,33.0,23.0,29.84,NW,307,9.0,14.0,66,0.00,,,0.00,,2013-01-28 13:02:00,
2013-01-28 05:11:00,33.0,23.0,29.84,NW,307,9.0,14.0,66,0.00,,,0.00,,2013-01-28 13:11:00,
2013-01-28 05:22:00,33.0,23.0,29.84,NW,307,9.0,14.0,66,0.00,,,0.00,,2013-01-28 13:22:00,
2013-01-28 05:32:00,33.0,23.0,29.84,WNW,292,8.0,13.0,66,0.00,,,0.00,,2013-01-28 13:32:00,
2013-01-28 05:42:00,33.0,23.0,29.84,WNW,292,8.0,13.0,66,0.00,,,0.00,,2013-01-28 13:42:00,
2013-01-28 05:52:00,33.0,23.0,29.84,WNW,292,8.0,13.0,66,0.00,,,0.00,,2013-01-28 13:52:00,
2013-01-28 06:02:00,33.0,23.0,29.84,West,275,7.0,10.0,66,0.00,,,0.00,,2013-01-28 14:02:00,
2013-01-28 06:12:00,33.0,23.0,29.84,West,275,7.0,10.0,66,0.00,,,0.00,,2013-01-28 14:12:00,
2013-01-28 06:22:00,33.0,23.0,29.84,West,275,7.0,10.0,66,0.00,,,0.00,,2013-01-28 14:22:00,
2013-01-28 06:32:00,33.0,23.0,29.84,West,272,9.0,13.0,65,0.00,,,0.00,,2013-01-28 14:32:00,
2013-01-28 06:42:00,33.0,23.0,29.84,West,272,9.0,13.0,65,0.00,,,0.00,,2013-01-28 14:42:00,
2013-01-28 06:53:00,33.0,23.0,29.84,West,272,9.0,13.0,65,0.00,,,0.00,,2013-01-28 14:53:00,
2013-01-28 07:02:00,33.0,23.0,29.84,West,269,7.0,10.0,65,0.00,,,0.00,,2013-01-28 15:02:00,
2013-01-28 07:11:00,33.0,23.0,29.84,West,269,7.0,10.0,65,0.00,,,0.00,,2013-01-28 15:11:00,
2013-01-28 07:23:00,33.0,23.0,29.84,WNW,287,7.0,10.0,65,0.00,,,0.00,,2013-01-28 15:23:00,
2013-01-28 07:33:00,33.0,22.0,29.84,WNW,287,7.0,13.0,64,0.00,,,0.00,,2013-01-28 15:33:00,
2013-01-28 07:42:00,33.0,22.0,29.84,WNW,287,7.0,13.0,64,0.00,,,0.00,,2013-01-28 15:42:00,
2013-01-28 07:52:00,33.0,22.0,29.84,WSW,252,9.0,12.0,63,0.00,,,0.00,,2013-01-28 15:52:00,
2013-01-28 08:03:00,33.0,22.0,29.84,WSW,252,9.0,12.0,63,0.00,,,0.00,,2013-01-28 16:03:00,
2013-01-28 08:12:00,33.0,22.0,29.84,WSW,252,9.0,12.0,63,0.00,,,0.00,,2013-01-28 16:12:00,
2013-01-28 08:21:00,33.0,22.0,29.84,WSW,258,7.0,12.0,64,0.00,,,0.00,,2013-01-28 16:21:00,
2013-01-28 08:32:00,33.0,22.0,29.84,WSW,258,7.0,12.0,64,0.00,,,0.00,,2013-01-28 16:32:00,
2013-01-28 08:42:00,33.0,22.0,29.84,WSW,258,7.0,12.0,64,0.00,,,0.00,,2013-01-28 16:42:00,
2013-01-28 08:52:00,33.0,22.0,29.84,WSW,258,7.0,12.0,64,0.00,,,0.00,,2013-01-28 16:52:00,
2013-01-28 09:22:00,34.0,22.0,29.84,WSW,248,7.0,10.0,62,0.00,,,0.00,,2013-01-28 17:22:00,
2013-01-28 09:32:00,34.0,22.0,29.84,WSW,248,7.0,10.0,62,0.00,,,0.00,,2013-01-28 17:32:00,
2013-01-28 09:41:00,34.0,22.0,29.84,WSW,248,7.0,10.0,62,0.00,,,0.00,,2013-01-28 17:41:00,
2013-01-28 09:52:00,34.0,22.0,29.84,WSW,248,7.0,10.0,62,0.00,,,0.00,,2013-01-28 17:52:00,
2013-01-28 10:02:00,34.0,22.0,29.87,WSW,257,9.0,15.0,61,0.00,,,0.00,,2013-01-28 18:02:00,
2013-01-28 10:12:00,34.0,22.0,29.87,WSW,257,9.0,15.0,61,0.00,,,0.00,,2013-01-28 18:12:00,
2013-01-28 10:23:00,34.0,22.0,29.87,WSW,257,9.0,15.0,61,0.00,,,0.00,,2013-01-28 18:23:00,
2013-01-28 10:33:00,35.0,22.0,29.87,West,259,6.0,13.0,59,0.00,,,0.00,,2013-01-28 18:33:00,
2013-01-28 10:42:00,35.0,22.0,29.87,West,259,6.0,13.0,59,0.00,,,0.00,,2013-01-28 18:42:00,
2013-01-28 10:52:00,35.0,22.0,29.87,West,259,6.0,13.0,59,0.00,,,0.00,,2013-01-28 18:52:00,
2013-01-28 11:01:00,35.0,22.0,29.87,West,259,6.0,13.0,59,0.00,,,0.00,,2013-01-28 19:01:00,
2013-01-28 11:11:00,35.0,22.0,29.87,West,259,6.0,13.0,59,0.00,,,0.00,,2013-01-28 19:11:00,
2013-01-28 11:22:00,37.0,23.0,29.87,WNW,292,9.0,13.0,56,0.00,,,0.00,,2013-01-28 19:22:00,
2013-01-28 11:32:00,37.0,23.0,29.87,WNW,292,9.0,13.0,56,0.00,,,0.00,,2013-01-28 19:32:00,
2013-01-28 11:42:00,37.0,23.0,29.87,WNW,292,9.0,13.0,56,0.00,,,0.00,,2013-01-28 19:42:00,
2013-01-28 11:52:00,37.0,23.0,29.87,WSW,253,9.0,14.0,57,0.00,,,0.00,,2013-01-28 19:52:00,
2013-01-28 12:02:00,37.0,23.0,29.87,WNW,284,9.0,14.0,57,0.00,,,0.00,,2013-01-28 20:02:00,
2013-01-28 12:11:00,37.0,23.0,29.87,WNW,284,9.0,14.0,57,0.00,,,0.00,,2013-01-28 20:11:00,
2013-01-28 12:21:00,36.0,22.0,29.87,West,266,9.0,12.0,57,0.00,,,0.00,,2013-01-28 20:21:00,
2013-01-28 12:32:00,36.0,22.0,29.87,WSW,239,7.0,13.0,57,0.00,,,0.00,,2013-01-28 20:32:00,
2013-01-28 12:42:00,36.0,22.0,29.87,WSW,239,7.0,13.0,57,0.00,,,0.00,,2013-01-28 20:42:00,
2013-01-28 12:52:00,37.0,23.0,29.84,West,276,8.0,13.0,57,0.00,,,0.00,,2013-01-28 20:52:00,
2013-01-28 13:02:00,37.0,23.0,29.84,WNW,292,9.0,15.0,57,0.00,,,0.00,,2013-01-28 21:02:00,
2013-01-28 13:11:00,37.0,23.0,29.84,WNW,292,9.0,15.0,57,0.00,,,0.00,,2013-01-28 21:11:00,
2013-01-28 13:22:00,37.0,23.0,29.84,WNW,292,9.0,15.0,57,0.00,,,0.00,,2013-01-28 21:22:00,
2013-01-28 13:33:00,37.0,24.0,29.84,WNW,291,7.0,10.0,58,0.00,,,0.00,,2013-01-28 21:33:00,
2013-01-28 13:42:00,37.0,24.0,29.84,WNW,291,7.0,10.0,58,0.00,,,0.00,,2013-01-28 21:42:00,
2013-01-28 13:53:00,37.0,24.0,29.84,WNW,291,7.0,10.0,58,0.00,,,0.00,,2013-01-28 21:53:00,
2013-01-28 14:01:00,38.0,24.0,29.84,WNW,298,8.0,13.0,56,0.00,,,0.00,,2013-01-28 22:01:00,
2013-01-28 14:11:00,38.0,24.0,29.84,WNW,298,8.0,13.0,56,0.00,,,0.00,,2013-01-28 22:11:00,
2013-01-28 14:22:00,38.0,24.0,29.84,WNW,298,8.0,13.0,56,0.00,,,0.00,,2013-01-28 22:22:00,
2013-01-28 14:32:00,38.0,24.0,29.84,WNW,298,8.0,13.0,56,0.00,,,0.00,,2013-01-28 22:32:00,
2013-01-28 15:02:00,38.0,24.0,29.84,West,262,6.0,10.0,56,0.00,,,0.00,,2013-01-28 23:02:00,
2013-01-28 15:11:00,38.0,24.0,29.84,West,262,6.0,10.0,56,0.00,,,0.00,,2013-01-28 23:11:00,
2013-01-28 15:22:00,38.0,24.0,29.84,WSW,248,6.0,9.0,56,0.00,,,0.00,,2013-01-28 23:22:00,
2013-01-28 15:32:00,38.0,24.0,29.84,WSW,248,6.0,9.0,56,0.00,,,0.00,,2013-01-28 23:32:00,
2013-01-28 15:41:00,38.0,24.0,29.84,WSW,248,6.0,9.0,56,0.00,,,0.00,,2013-01-28 23:41:00,
2013-01-28 15:52:00,38.0,24.0,29.84,WSW,248,6.0,9.0,56,0.00,,,0.00,,2013-01-28 23:52:00,
2013-01-28 16:22:00,36.0,23.0,29.84,WSW,237,6.0,12.0,60,0.00,,,0.00,,2013-01-29 00:22:00,
2013-01-28 16:32:00,36.0,24.0,29.84,WSW,248,7.0,10.0,61,0.00,,,0.00,,2013-01-29 00:32:00,
2013-01-28 16:42:00,36.0,24.0,29.84,WSW,248,7.0,10.0,61,0.00,,,0.00,,2013-01-29 00:42:00,
2013-01-28 16:52:00,36.0,24.0,29.84,WSW,248,7.0,10.0,61,0.00,,,0.00,,2013-01-29 00:52:00,
2013-01-28 17:01:00,36.0,24.0,29.84,WSW,248,7.0,10.0,61,0.00,,,0.00,,2013-01-29 01:01:00,
2013-01-28 17:11:00,36.0,24.0,29.84,WSW,248,7.0,10.0,61,0.00,,,0.00,,2013-01-29 01:11:00,
2013-01-28 17:22:00,35.0,24.0,29.84,SSW,209,7.0,13.0,64,0.00,,,0.00,,2013-01-29 01:22:00,
2013-01-28 17:32:00,35.0,24.0,29.84,SW,235,7.0,13.0,64,0.00,,,0.00,,2013-01-29 01:32:00,
2013-01-28 17:42:00,35.0,24.0,29.84,SW,235,7.0,13.0,64,0.00,,,0.00,,2013-01-29 01:42:00,
2013-01-28 17:52:00,35.0,24.0,29.84,WSW,247,8.0,12.0,65,0.00,,,0.00,,2013-01-29 01:52:00,
2013-01-28 18:01:00,35.0,24.0,29.84,WSW,247,8.0,12.0,65,0.00,,,0.00,,2013-01-29 02:01:00,
2013-01-28 18:11:00,35.0,24.0,29.84,WSW,247,8.0,12.0,65,0.00,,,0.00,,2013-01-29 02:11:00,
2013-01-28 18:21:00,35.0,24.0,29.84,WSW,247,8.0,12.0,65,0.00,,,0.00,,2013-01-29 02:21:00,
2013-01-28 18:33:00,35.0,24.0,29.81,SW,236,9.0,15.0,65,0.00,,,0.00,,2013-01-29 02:33:00,
2013-01-28 18:42:00,35.0,24.0,29.81,SW,236,9.0,15.0,65,0.00,,,0.00,,2013-01-29 02:42:00,
2013-01-28 18:53:00,35.0,24.0,29.81,WSW,252,10.0,13.0,65,0.00,,,0.00,,2013-01-29 02:53:00,
2013-01-28 19:02:00,35.0,24.0,29.81,WSW,252,10.0,13.0,65,0.00,,,0.00,,2013-01-29 03:02:00,
2013-01-28 19:11:00,35.0,24.0,29.81,WSW,252,10.0,13.0,65,0.00,,,0.00,,2013-01-29 03:11:00,
2013-01-28 19:21:00,35.0,25.0,29.84,West,270,11.0,14.0,66,0.00,,,0.00,,2013-01-29 03:21:00,
2013-01-28 19:31:00,36.0,25.0,29.84,West,267,9.0,13.0,65,0.00,,,0.00,,2013-01-29 03:31:00,
2013-01-28 19:41:00,36.0,25.0,29.84,West,267,9.0,13.0,65,0.00,,,0.00,,2013-01-29 03:41:00,
2013-01-28 19:52:00,36.0,25.0,29.84,West,267,9.0,13.0,65,0.00,,,0.00,,2013-01-29 03:52:00,
2013-01-28 20:01:00,36.0,25.0,29.84,West,264,10.0,16.0,65,0.00,,,0.00,,2013-01-29 04:01:00,
2013-01-28 20:11:00,36.0,25.0,29.84,West,264,10.0,16.0,65,0.00,,,0.00,,2013-01-29 04:11:00,
2013-01-28 20:21:00,36.0,25.0,29.84,West,264,10.0,16.0,65,0.00,,,0.00,,2013-01-29 04:21:00,
2013-01-28 20:32:00,35.0,25.0,29.84,West,271,9.0,15.0,67,0.00,,,0.00,,2013-01-29 04:32:00,
2013-01-28 20:42:00,35.0,25.0,29.84,West,271,9.0,15.0,67,0.00,,,0.00,,2013-01-29 04:42:00,
2013-01-28 20:52:00,35.0,25.0,29.84,West,271,9.0,15.0,67,0.00,,,0.00,,2013-01-29 04:52:00,
2013-01-28 21:03:00,35.0,26.0,29.84,WSW,243,11.0,16.0,69,0.00,,,0.00,,2013-01-29 05:03:00,
2013-01-28 21:12:00,35.0,26.0,29.84,WSW,243,11.0,16.0,69,0.00,,,0.00,,2013-01-29 05:12:00,
2013-01-28 21:21:00,35.0,26.0,29.84,WSW,247,9.0,15.0,70,0.00,,,0.00,,2013-01-29 05:21:00,
2013-01-28 21:32:00,35.0,26.0,29.84,SW,229,10.0,15.0,69,0.00,,,0.00,,2013-01-29 05:32:00,
2013-01-28 21:42:00,35.0,26.0,29.84,SW,229,10.0,15.0,69,0.00,,,0.00,,2013-01-29 05:42:00,
2013-01-28 21:52:00,35.0,26.0,29.84,West,277,10.0,15.0,70,0.00,,,0.00,,2013-01-29 05:52:00,
2013-01-28 22:01:00,35.0,26.0,29.84,West,266,7.0,15.0,70,0.00,,,0.00,,2013-01-29 06:01:00,
2013-01-28 22:11:00,35.0,26.0,29.84,West,266,7.0,15.0,70,0.00,,,0.00,,2013-01-29 06:11:00,
2013-01-28 22:21:00,35.0,26.0,29.84,West,270,10.0,13.0,69,0.00,,,0.00,,2013-01-29 06:21:00,
2013-01-28 22:31:00,35.0,26.0,29.84,West,270,10.0,13.0,69,0.00,,,0.00,,2013-01-29 06:31:00,
2013-01-28 22:41:00,35.0,26.0,29.84,West,270,10.0,13.0,69,0.00,,,0.00,,2013-01-29 06:41:00,
2013-01-28 22:52:00,35.0,26.0,29.84,West,270,10.0,13.0,69,0.00,,,0.00,,2013-01-29 06:52:00,
2013-01-28 23:01:00,35.0,26.0,29.84,West,277,10.0,15.0,70,0.00,,,0.00,,2013-01-29 07:01:00,
2013-01-28 23:11:00,35.0,26.0,29.84,West,277,10.0,15.0,70,0.00,,,0.00,,2013-01-29 07:11:00,
2013-01-28 23:21:00,35.0,26.0,29.84,WSW,253,12.0,18.0,69,0.00,,,0.00,,2013-01-29 07:21:00,
2013-01-28 23:31:00,35.0,26.0,29.87,WSW,238,9.0,17.0,70,0.00,,,0.00,,2013-01-29 07:31:00,
2013-01-28 23:41:00,35.0,26.0,29.87,WSW,238,9.0,17.0,70,0.00,,,0.00,,2013-01-29 07:41:00,
2013-01-28 23:51:00,35.0,26.0,29.87,WSW,238,9.0,17.0,70,0.00,,,0.00,,2013-01-29 07:51:00,